[[{"header":{"parameterUnit":"m.s-1","parameterCategory":1,"la1":30.2991,"la2":30.254,"lo1":-89.0895,"lo2":-89.0444,"dy":0.0017,"dx":0.0017,"nx":28,"ny":28,"refTime":"2025-11-23T09:00:00:Z","depth":0,"parameterNumber":2,"parameterNumberName":"U-component_of_WINDS"},"data":[0,0,0,0,0,0,0,0,0,0,0,0,0,0,0,0,0,0,0,0,0,0,0,0,0,0,0,0,0,0,0,0,0,0,0,0,0,0,0,0,0,0,0,0,0,0,0,0,0,0,0,0,0,0,0,0,0,0,-3.6586,-3.6586,0,-3.6608,-3.6608,-3.6608,-3.651,-3.6507,-3.6504,-3.6501,-3.6525,-3.6528,-3.6531,0,0,0,0,0,0,0,0,0,0,0,0,0,-3.646,-3.6463,-3.6586,-3.6586,-3.6586,-3.6608,-3.6608,-3.6608,-3.651,-3.6507,-3.6503,-3.65,-3.6524,-3.6528,-3.6531,0,0,0,0,0,0,0,0,0,0,0,0,0,-3.6502,-3.6464,-3.6586,-3.654,-3.6536,-3.6608,-3.6608,-3.6609,-3.6511,-3.6507,-3.6502,-3.6498,-3.6522,-3.6527,-3.6532,-3.6649,0,0,-3.6547,-3.6549,0,0,0,0,0,0,0,0,-3.65,-3.6507,-3.6546,-3.6543,-3.6539,-3.6552,-3.6572,-3.6622,-3.6512,-3.6521,-3.6501,-3.6496,-3.6537,-3.6541,-3.6554,-3.665,-3.6651,-3.6548,-3.6551,-3.6553,-3.6554,0,0,0,0,0,0,0,-3.6497,-3.6505,-3.6595,-3.6547,-3.6543,-3.6519,-3.652,-3.6581,-3.6553,-3.6519,-3.6512,-3.6516,-3.6534,-3.655,-3.6554,-3.6652,-3.6547,-3.6552,-3.6555,-3.6557,-3.6846,-3.685,0,0,0,0,0,0,-3.65,-3.6503,-3.6594,-3.6595,-3.6508,-3.6525,-3.6526,-3.6552,-3.6552,-3.6548,-3.652,-3.6512,-3.6543,-3.6548,-3.6555,-3.6692,-3.6553,-3.6557,-3.656,-3.6841,-3.6847,-3.6852,0,0,0,0,0,0,-3.6498,-3.6509,-3.6593,-3.6547,-3.6556,-3.6531,-3.6562,-3.6555,-3.657,-3.6552,-3.6547,-3.6541,-3.654,-3.6548,-3.6626,-3.6691,-3.656,-3.6564,-3.6836,-3.6843,-3.6849,-3.6967,0,0,0,0,0,0,-3.6495,-3.6509,-3.6552,-3.6549,-3.6559,-3.6664,-3.6565,-3.6558,-3.6579,-3.6568,-3.657,-3.6567,-3.6537,-3.662,-3.6631,-3.6696,-3.6568,-3.683,-3.6839,-3.6847,-3.6957,-3.6977,-3.6994,0,0,0,0,0,-3.649,-3.6585,-3.6555,-3.6567,-3.6613,-3.6668,-3.6674,-3.6638,-3.6584,-3.6628,-3.6617,-3.6567,-3.6683,-3.6629,-3.6641,-3.6708,-3.6825,-3.6836,-3.6846,-3.6949,-3.6973,-3.6994,0,0,0,0,0,0,-3.6596,-3.6583,-3.655,-3.6646,-3.6659,-3.6651,-3.6705,-3.6665,-3.6693,-3.6682,-3.6637,-3.6638,-3.6725,-3.6724,-3.6664,-3.6822,-3.6745,-3.6758,-3.6818,-3.6841,-3.686,-3.6857,-3.6572,0,0,0,0,0,-3.663,-3.6676,-3.6662,-3.6749,-3.6757,-3.6731,-3.6753,-3.6725,-3.6736,-3.6741,-3.6735,-3.6749,-3.6788,-3.6815,-3.685,-3.6957,-3.6957,-3.701,-3.7028,-3.7044,-3.7055,-3.7112,-3.7136,-3.6887,-3.6886,-3.6886,0,0,-3.6702,-3.6701,-3.6732,-3.677,-3.6776,-3.6825,-3.6735,-3.679,-3.6826,-3.6749,-3.6823,-3.682,-3.6832,-3.6926,-3.6967,-3.6928,-3.7124,-3.7057,-3.7069,-3.7073,-3.7126,-3.7149,-3.717,-3.6894,-3.6892,-3.6891,0,0,-3.6856,-3.686,-3.6932,-3.6941,-3.6952,-3.6935,-3.6952,-3.6951,-3.6946,-3.702,-3.6964,-3.7006,-3.7075,-3.7086,-3.7101,-3.7262,-3.7217,-3.7275,-3.7372,-3.7428,-3.7448,-3.7465,-3.7522,-3.7543,-3.7288,-3.7288,-3.7288,0,-3.6943,-3.7013,-3.6975,-3.7033,-3.7052,-3.6986,-3.7059,-3.7069,-3.7092,-3.7107,-3.7063,-3.7149,-3.7152,-3.7248,-3.7287,-3.7302,-3.7321,-3.7274,-3.7448,-3.7465,-3.748,-3.7534,-3.7556,-3.7295,-3.7294,-3.7293,-3.7293,0,-3.712,-3.717,-3.7227,-3.7251,-3.7276,-3.7342,-3.7314,-3.7344,-3.7315,-3.7302,-3.7379,-3.7381,-3.7416,-3.7437,-3.7408,-3.7529,-3.7504,-3.7456,-3.7377,-3.7512,-3.7562,-3.7582,-3.7305,-3.7302,-3.73,-3.7299,0,0,-3.7339,-3.7342,-3.7363,-3.7374,-3.7382,-3.742,-3.7484,-3.7518,-3.7545,-3.7564,-3.7616,-3.7677,-3.7632,-3.7649,-3.7622,-3.7672,-3.78,-3.7616,-3.7616,-3.765,-3.7933,-3.7969,-3.7994,-3.777,-3.7774,-3.7777,-3.7932,0,-3.749,-3.7598,-3.7566,-3.7674,-3.772,-3.766,-3.7715,-3.7727,-3.7718,-3.7756,-3.7746,-3.7789,-3.7727,-3.7737,-3.7783,-3.7774,-3.7856,-3.7763,-3.7818,-3.7821,-3.7816,-3.802,-3.8057,-3.8203,-3.7951,-3.7954,-3.7957,0,-3.7679,-3.7706,-3.782,-3.7822,-3.784,-3.789,-3.792,-3.7957,-3.797,-3.796,-3.798,-3.7943,-3.8006,-3.7929,-3.8016,-3.7954,-3.7975,-3.7975,-3.7979,-3.7982,-3.7896,-3.8027,-3.8248,-3.827,-3.7987,-3.7985,-3.7983,0,-3.7827,-3.7891,-3.7967,-3.7978,-3.7983,-3.802,-3.8024,-3.8032,-3.8056,-3.8082,-3.8097,-3.8131,-3.8149,-3.8176,-3.815,-3.8096,-3.8241,-3.8162,-3.8234,-3.8235,-3.8265,-3.8264,-3.8493,-3.8282,-3.8282,-3.8282,-3.8281,0,-3.7998,-3.8069,-3.8034,-3.808,-3.8159,-3.8123,-3.8202,-3.8199,-3.8208,-3.8254,-3.8204,-3.8248,-3.8211,-3.8252,-3.8232,-3.8307,-3.8316,-3.831,-3.8303,-3.8313,-3.8314,-3.8325,-3.8314,-3.8287,-3.8286,-3.8285,-3.8284,0,-3.8174,-3.8153,-3.8232,-3.8231,-3.8233,-3.8291,-3.829,-3.8334,-3.8322,-3.838,-3.8392,-3.8374,-3.842,-3.8396,-3.8444,-3.8431,-3.8528,-3.8508,-3.8523,-3.8518,-3.8591,-3.8584,-3.8834,-3.8865,-3.8636,-3.8638,-3.864,0,-3.8284,-3.8337,-3.8343,-3.837,-3.8377,-3.8421,-3.8445,-3.8412,-3.8439,-3.8459,-3.85,-3.8542,-3.8574,-3.865,-3.8641,-3.8678,-3.8659,-3.8744,-3.8664,-3.8672,-3.8659,-3.8655,-3.866,-3.8759,-3.8762,-3.8764,-3.8766,0,-3.848,-3.8467,-3.8503,-3.8537,-3.8566,-3.8591,-3.8611,-3.8636,-3.8604,-3.8637,-3.8684,-3.8708,-3.8758,-3.88,-3.8833,-3.8837,-3.8797,-3.8792,-3.881,-3.882,-3.8826,-3.8823,-3.8566,-3.8785,-3.8783,-3.8782,-3.8781,-3.878,-3.8625,-3.867,-3.8681,-3.8723,-3.8736,-3.8756,-3.8797,-3.8792,-3.883,-3.8867,-3.8846,-3.8901,-3.8914,-3.8953,-3.8964,-3.9006,-3.8972,-3.8999,-3.9006,-3.9013,-3.9022,-3.8821,-3.9012,-3.9012,-3.9011,-3.9011,-3.901,0,-3.8818,-3.8822,-3.8862,-3.8892,-3.8926,-3.8886,-3.8907,-3.8938,-3.8986,-3.9002,-3.9035,-3.9089,-3.9131,-3.9126,-3.9164,-3.9199,-3.9182,-3.921,-3.9206,-3.9208,-3.9051,-3.903,-3.9224,-3.9224,-3.9224,-3.9224,-3.9224,-3.9224,-3.8921,-3.8996,-3.8986,-3.9066,-3.907,-3.9123,-3.9139,-3.9158,-3.9171,-3.9233,-3.9268,-3.9265,-3.9273,-3.9312,-3.9348,-3.9346,-3.9362,-3.9397,-3.9388,-3.9241,-3.9219,-3.9199,-3.918,-3.9401,-3.9401,-3.9541,-3.9543,-3.9544]},{"header":{"parameterUnit":"m.s-1","parameterCategory":1,"la1":30.2991,"la2":30.254,"lo1":-89.0895,"lo2":-89.0444,"dy":0.0017,"dx":0.0017,"nx":28,"ny":28,"refTime":"2025-11-23T09:00:00:Z","depth":0,"parameterNumber":3,"parameterNumberName":"V-component_of_WINDS"},"data":[0,0,0,0,0,0,0,0,0,0,0,0,0,0,0,0,0,0,0,0,0,0,0,0,0,0,0,0,0,0,0,0,0,0,0,0,0,0,0,0,0,0,0,0,0,0,0,0,0,0,0,0,0,0,0,0,0,0,0.6859,0.686,0,0.6943,0.6944,0.6945,0.7023,0.7024,0.7025,0.7026,0.711,0.7111,0.7112,0,0,0,0,0,0,0,0,0,0,0,0,0,0.6767,0.6768,0.6859,0.686,0.6861,0.6943,0.6944,0.6945,0.7023,0.7024,0.7025,0.7026,0.7109,0.7111,0.7112,0,0,0,0,0,0,0,0,0,0,0,0,0,0.6824,0.6769,0.6859,0.691,0.6915,0.6942,0.6944,0.6945,0.7022,0.7024,0.7025,0.7027,0.7109,0.7111,0.7113,0.7096,0,0,0.7119,0.712,0,0,0,0,0,0,0,0,0.6821,0.6828,0.6901,0.6906,0.6912,0.6974,0.6942,0.6996,0.7022,0.6982,0.7026,0.7027,0.7063,0.7069,0.7082,0.71,0.7103,0.7119,0.712,0.7121,0.7122,0,0,0,0,0,0,0,0.6817,0.6824,0.6892,0.6902,0.6909,0.6929,0.6938,0.6953,0.7013,0.6985,0.6991,0.7,0.7067,0.7079,0.7084,0.7105,0.7119,0.7121,0.7122,0.7123,0.7116,0.7115,0,0,0,0,0,0,0.6805,0.6821,0.6889,0.6895,0.6869,0.6929,0.694,0.6953,0.7013,0.7024,0.6999,0.7003,0.7075,0.7082,0.7087,0.7073,0.7121,0.7123,0.7124,0.7117,0.7116,0.7114,0,0,0,0,0,0,0.6803,0.6811,0.6886,0.6859,0.687,0.6929,0.6943,0.6953,0.6966,0.7023,0.7035,0.7001,0.7077,0.7084,0.7094,0.7077,0.7124,0.7126,0.7119,0.7117,0.7115,0.7044,0,0,0,0,0,0,0.68,0.6809,0.6803,0.6859,0.6871,0.6891,0.6942,0.6954,0.697,0.6977,0.7028,0.7038,0.7078,0.709,0.7096,0.7081,0.7127,0.7121,0.7118,0.7116,0.7048,0.7039,0.7032,0,0,0,0,0,0.6796,0.6779,0.6802,0.681,0.6865,0.689,0.6897,0.6944,0.6968,0.6963,0.7,0.7036,0.7078,0.7091,0.7097,0.7083,0.7122,0.7119,0.7116,0.7051,0.7041,0.7032,0,0,0,0,0,0,0.6718,0.6787,0.6814,0.6814,0.6845,0.6903,0.6897,0.6931,0.6956,0.6962,0.7019,0.703,0.7033,0.7059,0.7072,0.7071,0.7105,0.7103,0.7054,0.7045,0.7037,0.7031,0.7129,0,0,0,0,0,0.6702,0.6716,0.6775,0.6769,0.6784,0.6838,0.685,0.6884,0.6919,0.6932,0.697,0.7002,0.7023,0.7035,0.7057,0.7052,0.7065,0.7046,0.7038,0.7031,0.7029,0.703,0.7023,0.7104,0.7104,0.7104,0,0,0.6666,0.6705,0.6711,0.6754,0.6783,0.6797,0.6848,0.686,0.6871,0.6934,0.6946,0.6975,0.7015,0.7017,0.702,0.7039,0.701,0.7027,0.7021,0.7023,0.7026,0.7018,0.7012,0.7102,0.7102,0.7103,0,0,0.6609,0.664,0.6639,0.6668,0.6711,0.6747,0.6747,0.68,0.6822,0.6835,0.6883,0.6897,0.6931,0.6958,0.6976,0.6932,0.6968,0.6938,0.6898,0.6898,0.6892,0.6886,0.6872,0.6866,0.6936,0.6935,0.6935,0,0.656,0.6583,0.6635,0.6645,0.6663,0.6722,0.6723,0.6747,0.6795,0.6807,0.6827,0.6873,0.6903,0.6914,0.6904,0.6916,0.6919,0.6932,0.6889,0.6884,0.6879,0.6867,0.6861,0.6932,0.6932,0.6932,0.6933,0,0.6521,0.6536,0.6531,0.6577,0.6595,0.66,0.6653,0.6665,0.6698,0.6732,0.6746,0.6785,0.6817,0.6822,0.6854,0.6838,0.6849,0.6878,0.6914,0.6867,0.6856,0.6851,0.6926,0.6927,0.6929,0.693,0,0,0.6415,0.6492,0.6489,0.6512,0.6565,0.6578,0.6587,0.6619,0.6629,0.6661,0.667,0.6699,0.6727,0.6748,0.6783,0.6783,0.6748,0.6813,0.6815,0.6801,0.6736,0.6714,0.6707,0.6772,0.6771,0.6771,0.6733,0,0.6368,0.6387,0.6435,0.644,0.6456,0.6513,0.6521,0.6554,0.6587,0.6606,0.6642,0.6662,0.6697,0.6711,0.6713,0.6752,0.6736,0.6755,0.6782,0.6782,0.6771,0.6701,0.6678,0.664,0.6729,0.6728,0.6727,0,0.6315,0.6345,0.6351,0.6406,0.6414,0.642,0.6455,0.6472,0.6512,0.6536,0.656,0.66,0.6613,0.6646,0.6666,0.6678,0.6692,0.6712,0.6712,0.6717,0.6752,0.6705,0.6629,0.6623,0.6721,0.6721,0.6722,0,0.624,0.6281,0.6291,0.6308,0.6372,0.6375,0.6401,0.6443,0.646,0.6491,0.6503,0.6534,0.6551,0.6575,0.6622,0.6641,0.6637,0.6673,0.6658,0.6657,0.6654,0.6654,0.658,0.6662,0.6662,0.6662,0.6662,0,0.6182,0.6184,0.6258,0.6264,0.6268,0.6324,0.6327,0.6359,0.6396,0.641,0.6461,0.6472,0.6534,0.6554,0.6591,0.6602,0.6609,0.663,0.664,0.6626,0.6623,0.6636,0.664,0.6661,0.6661,0.6661,0.6661,0,0.6098,0.6148,0.6162,0.6222,0.6237,0.6238,0.629,0.6298,0.6335,0.6352,0.6359,0.6417,0.6442,0.6492,0.6531,0.6556,0.656,0.6577,0.6546,0.6553,0.6535,0.6536,0.6467,0.6462,0.6545,0.6545,0.6544,0,0.6058,0.6062,0.6122,0.6136,0.6161,0.6181,0.62,0.6255,0.6273,0.632,0.6323,0.6353,0.638,0.6418,0.6463,0.6494,0.6513,0.6486,0.6517,0.6504,0.6514,0.6513,0.6515,0.6479,0.6478,0.6477,0.6476,0,0.5983,0.6008,0.6033,0.6067,0.6088,0.6118,0.6149,0.6157,0.6221,0.6237,0.6265,0.6286,0.6327,0.6356,0.6394,0.6422,0.646,0.6466,0.6465,0.6451,0.6434,0.6444,0.6528,0.6468,0.6469,0.6469,0.647,0.647,0.5921,0.5928,0.5972,0.5999,0.6029,0.6059,0.607,0.6109,0.6133,0.6172,0.6203,0.6228,0.627,0.6325,0.6351,0.6372,0.639,0.6387,0.6387,0.6385,0.638,0.643,0.6379,0.6379,0.6379,0.638,0.638,0,0.585,0.5882,0.5906,0.595,0.5972,0.6007,0.6044,0.606,0.6082,0.6118,0.6144,0.6177,0.6206,0.6255,0.6288,0.6296,0.6314,0.6303,0.6303,0.6309,0.6361,0.636,0.6287,0.6287,0.6287,0.6287,0.6287,0.6287,0.5815,0.5829,0.5859,0.5889,0.5921,0.5947,0.5966,0.5994,0.6023,0.6058,0.6083,0.6115,0.6156,0.6194,0.6223,0.6236,0.6247,0.623,0.6249,0.6297,0.6305,0.6314,0.6313,0.6232,0.6231,0.6196,0.6196,0.6195]}]]